Time,TemperatureF,DewpointF,PressureIn,WindDirection,WindDirectionDegrees,WindSpeedMPH,WindSpeedGustMPH,Humidity,HourlyPrecipIn,Conditions,Clouds,dailyrainin,SoftwareType,DateUTC
2013-07-18 00:01:00,69.3,68.4,30.05,North,5,1.0,1.0,97,0.04,,,0.00,WeatherCatV1.00B22,2013-07-18 04:01:00,
2013-07-18 00:06:00,69.3,68.4,30.05,NNE,20,0.0,1.0,97,0.00,,,0.00,WeatherCatV1.00B22,2013-07-18 04:06:00,
2013-07-18 00:11:00,69.3,68.4,30.05,NNE,20,0.0,0.0,97,0.00,,,0.01,WeatherCatV1.00B22,2013-07-18 04:11:00,
2013-07-18 00:16:00,69.3,68.4,30.05,NNE,20,0.0,0.0,97,0.00,,,0.01,WeatherCatV1.00B22,2013-07-18 04:16:00,
2013-07-18 00:21:00,69.2,68.3,30.04,NNE,20,0.0,0.0,97,0.00,,,0.01,WeatherCatV1.00B22,2013-07-18 04:21:00,
2013-07-18 00:26:00,69.2,68.3,30.04,NNE,20,0.0,0.0,97,0.00,,,0.01,WeatherCatV1.00B22,2013-07-18 04:26:00,
2013-07-18 00:31:00,69.1,68.2,30.04,NNE,20,0.0,0.0,97,0.00,,,0.01,WeatherCatV1.00B22,2013-07-18 04:31:00,
2013-07-18 00:36:00,69.0,68.1,30.03,NNE,20,0.0,0.0,97,0.00,,,0.01,WeatherCatV1.00B22,2013-07-18 04:36:00,
2013-07-18 00:41:00,68.9,68.0,30.02,NNE,20,1.0,1.0,97,0.00,,,0.02,WeatherCatV1.00B22,2013-07-18 04:41:00,
2013-07-18 00:46:00,68.9,68.0,30.02,NE,39,1.0,3.0,97,0.00,,,0.02,WeatherCatV1.00B22,2013-07-18 04:46:00,
2013-07-18 00:51:00,68.9,68.0,30.01,NE,41,0.0,1.0,97,0.00,,,0.02,WeatherCatV1.00B22,2013-07-18 04:51:00,
2013-07-18 00:56:00,68.7,67.8,30.01,NE,41,2.0,2.0,97,0.00,,,0.02,WeatherCatV1.00B22,2013-07-18 04:56:00,
2013-07-18 01:01:00,68.4,67.5,30.01,NNE,30,3.0,4.0,97,0.00,,,0.02,WeatherCatV1.00B22,2013-07-18 05:01:00,
2013-07-18 01:06:00,68.6,67.7,30.01,NNE,31,3.0,4.0,97,0.00,,,0.02,WeatherCatV1.00B22,2013-07-18 05:06:00,
2013-07-18 01:11:00,68.8,67.9,30.00,NE,53,0.0,1.0,97,0.00,,,0.02,WeatherCatV1.00B22,2013-07-18 05:11:00,
2013-07-18 01:16:00,68.8,67.9,30.00,NE,53,1.0,2.0,97,0.00,,,0.02,WeatherCatV1.00B22,2013-07-18 05:16:00,
2013-07-18 01:21:00,68.7,67.8,30.00,NE,53,0.0,2.0,97,0.00,,,0.02,WeatherCatV1.00B22,2013-07-18 05:21:00,
2013-07-18 01:26:00,68.7,67.8,29.99,NE,53,0.0,0.0,97,0.00,,,0.02,WeatherCatV1.00B22,2013-07-18 05:26:00,
2013-07-18 01:31:00,68.7,67.8,29.99,NE,46,2.0,3.0,97,0.00,,,0.02,WeatherCatV1.00B22,2013-07-18 05:31:00,
2013-07-18 01:36:00,68.8,67.9,29.99,NE,38,4.0,4.0,97,0.00,,,0.02,WeatherCatV1.00B22,2013-07-18 05:36:00,
2013-07-18 01:41:00,69.0,68.1,29.99,NNE,31,5.0,6.0,97,0.00,,,0.02,WeatherCatV1.00B22,2013-07-18 05:41:00,
2013-07-18 01:46:00,69.1,68.2,29.99,NNE,30,3.0,4.0,97,0.00,,,0.02,WeatherCatV1.00B22,2013-07-18 05:46:00,
2013-07-18 01:51:00,69.1,68.2,29.98,NE,46,3.0,3.0,97,0.00,,,0.02,WeatherCatV1.00B22,2013-07-18 05:51:00,
2013-07-18 01:56:00,69.1,68.2,29.98,NE,46,0.0,1.0,97,0.00,,,0.02,WeatherCatV1.00B22,2013-07-18 05:56:00,
2013-07-18 02:01:00,69.1,68.2,29.97,NE,46,0.0,3.0,97,0.00,,,0.02,WeatherCatV1.00B22,2013-07-18 06:01:00,
2013-07-18 02:06:00,69.2,68.3,29.97,NE,40,0.0,3.0,97,0.00,,,0.02,WeatherCatV1.00B22,2013-07-18 06:06:00,
2013-07-18 02:10:00,69.2,68.3,29.97,NE,40,0.0,1.0,97,0.00,,,0.02,WeatherCatV1.00B22,2013-07-18 06:10:00,
2013-07-18 02:15:00,69.2,68.3,29.97,NE,40,0.0,1.0,97,0.00,,,0.02,WeatherCatV1.00B22,2013-07-18 06:15:00,
2013-07-18 02:20:00,69.1,68.2,29.97,NE,40,0.0,1.0,97,0.00,,,0.02,WeatherCatV1.00B22,2013-07-18 06:20:00,
2013-07-18 02:25:00,69.0,68.1,29.97,NE,40,0.0,0.0,97,0.00,,,0.02,WeatherCatV1.00B22,2013-07-18 06:25:00,
2013-07-18 02:30:00,69.0,68.1,29.97,NE,40,0.0,2.0,97,0.00,,,0.02,WeatherCatV1.00B22,2013-07-18 06:30:00,
2013-07-18 02:35:00,68.9,68.0,29.97,NE,40,0.0,0.0,97,0.00,,,0.02,WeatherCatV1.00B22,2013-07-18 06:35:00,
2013-07-18 02:40:00,68.9,68.0,29.97,NE,40,0.0,0.0,97,0.00,,,0.02,WeatherCatV1.00B22,2013-07-18 06:40:00,
2013-07-18 02:45:00,68.9,68.0,29.96,NE,40,0.0,0.0,97,0.00,,,0.02,WeatherCatV1.00B22,2013-07-18 06:45:00,
2013-07-18 02:50:00,68.9,68.0,29.96,NE,40,1.0,3.0,97,0.00,,,0.02,WeatherCatV1.00B22,2013-07-18 06:50:00,
2013-07-18 02:55:00,69.2,68.3,29.96,NE,39,4.0,4.0,97,0.00,,,0.02,WeatherCatV1.00B22,2013-07-18 06:55:00,
2013-07-18 03:00:00,69.5,68.6,29.95,NE,40,6.0,7.0,97,0.00,,,0.02,WeatherCatV1.00B22,2013-07-18 07:00:00,
2013-07-18 03:05:00,69.7,68.8,29.95,NE,44,5.0,7.0,97,0.00,,,0.02,WeatherCatV1.00B22,2013-07-18 07:05:00,
2013-07-18 03:10:00,69.9,69.0,29.95,NE,34,5.0,5.0,97,0.00,,,0.02,WeatherCatV1.00B22,2013-07-18 07:10:00,
2013-07-18 03:15:00,69.8,68.6,29.95,NE,43,3.0,3.0,96,0.00,,,0.02,WeatherCatV1.00B22,2013-07-18 07:15:00,
2013-07-18 03:20:00,69.8,68.6,29.95,NNE,32,0.0,1.0,96,0.00,,,0.02,WeatherCatV1.00B22,2013-07-18 07:20:00,
2013-07-18 03:25:00,69.7,68.5,29.95,North,0,1.0,2.0,96,0.00,,,0.02,WeatherCatV1.00B22,2013-07-18 07:25:00,
2013-07-18 03:30:00,69.6,68.4,29.95,North,0,0.0,1.0,96,0.00,,,0.02,WeatherCatV1.00B22,2013-07-18 07:30:00,
2013-07-18 03:35:00,69.5,68.3,29.95,North,0,0.0,1.0,96,0.00,,,0.02,WeatherCatV1.00B22,2013-07-18 07:35:00,
2013-07-18 03:40:00,69.5,68.3,29.95,North,0,0.0,0.0,96,0.00,,,0.02,WeatherCatV1.00B22,2013-07-18 07:40:00,
2013-07-18 03:45:00,69.4,68.2,29.95,North,0,0.0,0.0,96,0.00,,,0.02,WeatherCatV1.00B22,2013-07-18 07:45:00,
2013-07-18 03:50:00,69.4,68.2,29.95,North,0,0.0,0.0,96,0.00,,,0.02,WeatherCatV1.00B22,2013-07-18 07:50:00,
2013-07-18 03:55:00,69.3,68.1,29.95,North,0,1.0,1.0,96,0.00,,,0.02,WeatherCatV1.00B22,2013-07-18 07:55:00,
2013-07-18 04:00:00,69.2,68.3,29.95,North,0,0.0,0.0,97,0.00,,,0.02,WeatherCatV1.00B22,2013-07-18 08:00:00,
2013-07-18 04:05:00,69.2,68.3,29.95,North,0,0.0,1.0,97,0.00,,,0.02,WeatherCatV1.00B22,2013-07-18 08:05:00,
2013-07-18 04:10:00,69.2,68.3,29.95,North,0,0.0,0.0,97,0.00,,,0.02,WeatherCatV1.00B22,2013-07-18 08:10:00,
2013-07-18 04:15:00,69.1,68.2,29.95,North,0,0.0,0.0,97,0.00,,,0.02,WeatherCatV1.00B22,2013-07-18 08:15:00,
2013-07-18 04:20:00,69.1,68.2,29.94,North,0,0.0,1.0,97,0.00,,,0.02,WeatherCatV1.00B22,2013-07-18 08:20:00,
2013-07-18 04:25:00,69.1,68.2,29.94,North,0,0.0,0.0,97,0.00,,,0.02,WeatherCatV1.00B22,2013-07-18 08:25:00,
2013-07-18 04:30:00,69.0,68.1,29.94,North,0,1.0,1.0,97,0.00,,,0.02,WeatherCatV1.00B22,2013-07-18 08:30:00,
2013-07-18 04:35:00,68.9,68.0,29.94,North,0,1.0,2.0,97,0.00,,,0.02,WeatherCatV1.00B22,2013-07-18 08:35:00,
2013-07-18 04:40:00,68.9,68.0,29.94,North,0,0.0,1.0,97,0.00,,,0.02,WeatherCatV1.00B22,2013-07-18 08:40:00,
2013-07-18 04:45:00,68.9,68.0,29.94,North,0,0.0,0.0,97,0.00,,,0.02,WeatherCatV1.00B22,2013-07-18 08:45:00,
2013-07-18 04:50:00,68.9,68.0,29.94,North,0,0.0,0.0,97,0.00,,,0.02,WeatherCatV1.00B22,2013-07-18 08:50:00,
2013-07-18 04:55:00,68.8,67.9,29.94,WNW,291,1.0,1.0,97,0.00,,,0.02,WeatherCatV1.00B22,2013-07-18 08:55:00,
2013-07-18 05:00:00,68.8,67.9,29.95,WNW,291,0.0,1.0,97,0.00,,,0.02,WeatherCatV1.00B22,2013-07-18 09:00:00,
2013-07-18 05:05:00,68.7,67.8,29.95,WNW,291,0.0,0.0,97,0.00,,,0.02,WeatherCatV1.00B22,2013-07-18 09:05:00,
2013-07-18 05:10:00,68.7,67.8,29.95,WNW,291,0.0,0.0,97,0.00,,,0.02,WeatherCatV1.00B22,2013-07-18 09:10:00,
2013-07-18 05:15:00,68.6,67.7,29.95,WNW,291,0.0,0.0,97,0.00,,,0.02,WeatherCatV1.00B22,2013-07-18 09:15:00,
2013-07-18 05:20:00,68.6,67.7,29.95,WNW,291,0.0,1.0,97,0.00,,,0.02,WeatherCatV1.00B22,2013-07-18 09:20:00,
2013-07-18 05:25:00,68.5,67.6,29.95,WNW,291,0.0,0.0,97,0.00,,,0.02,WeatherCatV1.00B22,2013-07-18 09:25:00,
2013-07-18 05:30:00,68.5,67.6,29.96,SSW,208,0.0,1.0,97,0.00,,,0.02,WeatherCatV1.00B22,2013-07-18 09:30:00,
2013-07-18 05:35:00,68.4,67.5,29.96,SSW,210,2.0,2.0,97,0.00,,,0.02,WeatherCatV1.00B22,2013-07-18 09:35:00,
2013-07-18 05:40:00,68.4,67.5,29.97,SW,225,0.0,1.0,97,0.00,,,0.02,WeatherCatV1.00B22,2013-07-18 09:40:00,
2013-07-18 05:45:00,68.4,67.5,29.97,SW,225,0.0,0.0,97,0.00,,,0.02,WeatherCatV1.00B22,2013-07-18 09:45:00,
2013-07-18 05:50:00,68.4,67.5,29.97,SW,225,0.0,0.0,97,0.00,,,0.02,WeatherCatV1.00B22,2013-07-18 09:50:00,
2013-07-18 05:55:00,68.4,67.5,29.97,SW,225,0.0,0.0,97,0.00,,,0.02,WeatherCatV1.00B22,2013-07-18 09:55:00,
2013-07-18 06:00:00,68.4,67.5,29.97,SW,225,0.0,0.0,97,0.00,,,0.02,WeatherCatV1.00B22,2013-07-18 10:00:00,
2013-07-18 06:05:00,68.4,67.5,29.97,SW,225,0.0,0.0,97,0.00,,,0.02,WeatherCatV1.00B22,2013-07-18 10:05:00,
2013-07-18 06:10:00,68.4,67.5,29.98,SW,225,0.0,0.0,97,0.00,,,0.02,WeatherCatV1.00B22,2013-07-18 10:10:00,
2013-07-18 06:15:00,68.4,67.5,29.98,SW,225,0.0,0.0,97,0.00,,,0.02,WeatherCatV1.00B22,2013-07-18 10:15:00,
2013-07-18 06:20:00,68.4,67.5,29.98,SW,225,0.0,0.0,97,0.00,,,0.02,WeatherCatV1.00B22,2013-07-18 10:20:00,
2013-07-18 06:25:00,68.3,67.4,29.98,SW,225,0.0,0.0,97,0.00,,,0.02,WeatherCatV1.00B22,2013-07-18 10:25:00,
2013-07-18 06:30:00,68.3,67.4,29.98,SW,225,0.0,0.0,97,0.00,,,0.02,WeatherCatV1.00B22,2013-07-18 10:30:00,
2013-07-18 06:35:00,68.2,67.3,29.99,SW,225,0.0,0.0,97,0.00,,,0.02,WeatherCatV1.00B22,2013-07-18 10:35:00,
2013-07-18 06:40:00,68.2,67.3,29.99,SW,225,0.0,0.0,97,0.00,,,0.02,WeatherCatV1.00B22,2013-07-18 10:40:00,
2013-07-18 06:45:00,68.2,67.3,29.99,SW,225,0.0,0.0,97,0.00,,,0.02,WeatherCatV1.00B22,2013-07-18 10:45:00,
2013-07-18 06:50:00,68.2,67.3,30.00,SW,225,0.0,0.0,97,0.00,,,0.02,WeatherCatV1.00B22,2013-07-18 10:50:00,
2013-07-18 06:55:00,68.2,67.3,30.00,SW,225,0.0,0.0,97,0.00,,,0.02,WeatherCatV1.00B22,2013-07-18 10:55:00,
2013-07-18 07:00:00,68.2,67.3,30.00,SW,225,0.0,0.0,97,0.00,,,0.02,WeatherCatV1.00B22,2013-07-18 11:00:00,
2013-07-18 07:05:00,68.2,67.3,30.00,SW,225,1.0,1.0,97,0.00,,,0.02,WeatherCatV1.00B22,2013-07-18 11:05:00,
2013-07-18 07:10:00,68.2,67.3,30.00,SW,225,0.0,0.0,97,0.00,,,0.02,WeatherCatV1.00B22,2013-07-18 11:10:00,
2013-07-18 07:15:00,68.3,67.4,30.00,SW,225,0.0,0.0,97,0.00,,,0.02,WeatherCatV1.00B22,2013-07-18 11:15:00,
2013-07-18 07:20:00,68.3,67.4,30.00,SW,225,0.0,0.0,97,0.00,,,0.02,WeatherCatV1.00B22,2013-07-18 11:20:00,
2013-07-18 07:25:00,68.5,67.9,30.00,SW,225,0.0,0.0,98,0.00,,,0.02,WeatherCatV1.00B22,2013-07-18 11:25:00,
2013-07-18 07:30:00,68.7,68.1,30.00,SW,225,0.0,0.0,98,0.00,,,0.02,WeatherCatV1.00B22,2013-07-18 11:30:00,
2013-07-18 07:35:00,68.8,68.2,30.00,SW,225,0.0,0.0,98,0.00,,,0.02,WeatherCatV1.00B22,2013-07-18 11:35:00,
2013-07-18 07:40:00,68.9,68.0,30.00,SW,225,0.0,0.0,97,0.00,,,0.02,WeatherCatV1.00B22,2013-07-18 11:40:00,
2013-07-18 07:45:00,68.9,68.0,30.00,SW,225,0.0,0.0,97,0.00,,,0.02,WeatherCatV1.00B22,2013-07-18 11:45:00,
2013-07-18 07:50:00,69.0,68.1,30.00,SW,225,0.0,0.0,97,0.00,,,0.02,WeatherCatV1.00B22,2013-07-18 11:50:00,
2013-07-18 07:55:00,69.1,68.5,30.00,SW,225,0.0,0.0,98,0.00,,,0.02,WeatherCatV1.00B22,2013-07-18 11:55:00,
2013-07-18 08:00:00,69.2,68.6,30.01,NNW,342,0.0,0.0,98,0.00,,,0.02,WeatherCatV1.00B22,2013-07-18 12:00:00,
2013-07-18 08:05:00,69.4,68.8,30.01,NNW,342,0.0,0.0,98,0.00,,,0.02,WeatherCatV1.00B22,2013-07-18 12:05:00,
2013-07-18 08:10:00,69.5,68.6,30.01,NNW,342,0.0,0.0,97,0.00,,,0.02,WeatherCatV1.00B22,2013-07-18 12:10:00,
2013-07-18 08:15:00,69.6,68.7,30.01,NNW,342,0.0,0.0,97,0.00,,,0.02,WeatherCatV1.00B22,2013-07-18 12:15:00,
2013-07-18 08:20:00,69.7,69.1,30.01,NNW,342,0.0,0.0,98,0.00,,,0.02,WeatherCatV1.00B22,2013-07-18 12:20:00,
2013-07-18 08:25:00,69.8,69.2,30.01,NNW,342,0.0,0.0,98,0.00,,,0.02,WeatherCatV1.00B22,2013-07-18 12:25:00,
2013-07-18 08:30:00,69.9,69.3,30.01,North,351,0.0,1.0,98,0.00,,,0.02,WeatherCatV1.00B22,2013-07-18 12:30:00,
2013-07-18 08:35:00,70.1,69.2,30.01,North,351,0.0,0.0,97,0.00,,,0.02,WeatherCatV1.00B22,2013-07-18 12:35:00,
2013-07-18 08:40:00,70.2,69.3,30.01,North,349,0.0,0.0,97,0.00,,,0.02,WeatherCatV1.00B22,2013-07-18 12:40:00,
2013-07-18 08:45:00,70.4,69.5,30.01,North,350,0.0,0.0,97,0.00,,,0.02,WeatherCatV1.00B22,2013-07-18 12:45:00,
2013-07-18 08:50:00,70.6,69.7,30.01,North,349,0.0,0.0,97,0.00,,,0.02,WeatherCatV1.00B22,2013-07-18 12:50:00,
2013-07-18 08:55:00,70.9,70.0,30.01,North,349,0.0,0.0,97,0.00,,,0.02,WeatherCatV1.00B22,2013-07-18 12:55:00,
2013-07-18 09:00:00,71.1,70.2,30.01,North,350,0.0,0.0,97,0.00,,,0.02,WeatherCatV1.00B22,2013-07-18 13:00:00,
2013-07-18 09:05:00,71.3,70.4,30.01,North,350,0.0,0.0,97,0.00,,,0.02,WeatherCatV1.00B22,2013-07-18 13:05:00,
2013-07-18 09:10:00,71.5,70.6,30.01,NNW,348,0.0,0.0,97,0.00,,,0.02,WeatherCatV1.00B22,2013-07-18 13:10:00,
2013-07-18 09:15:00,71.8,70.9,30.01,NNW,348,0.0,0.0,97,0.00,,,0.02,WeatherCatV1.00B22,2013-07-18 13:15:00,
2013-07-18 09:20:00,72.1,70.9,30.01,NNW,348,0.0,0.0,96,0.00,,,0.02,WeatherCatV1.00B22,2013-07-18 13:20:00,
2013-07-18 09:25:00,72.4,71.2,30.01,NNW,348,0.0,0.0,96,0.00,,,0.02,WeatherCatV1.00B22,2013-07-18 13:25:00,
2013-07-18 09:30:00,72.7,71.5,30.01,NNW,348,0.0,0.0,96,0.00,,,0.02,WeatherCatV1.00B22,2013-07-18 13:30:00,
2013-07-18 09:35:00,73.0,71.5,30.01,NNE,27,3.0,3.0,95,0.00,,,0.02,WeatherCatV1.00B22,2013-07-18 13:35:00,
2013-07-18 09:40:00,73.5,71.3,30.01,NNE,27,0.0,2.0,93,0.00,,,0.02,WeatherCatV1.00B22,2013-07-18 13:40:00,
2013-07-18 09:45:00,74.0,70.9,30.01,NNE,27,2.0,2.0,90,0.00,,,0.02,WeatherCatV1.00B22,2013-07-18 13:45:00,
2013-07-18 09:50:00,74.3,70.8,30.01,NNE,28,2.0,3.0,89,0.00,,,0.02,WeatherCatV1.00B22,2013-07-18 13:50:00,
2013-07-18 09:55:00,74.8,70.7,30.01,NNE,28,1.0,2.0,87,0.00,,,0.02,WeatherCatV1.00B22,2013-07-18 13:55:00,
2013-07-18 10:00:00,75.2,71.1,30.01,NNE,28,0.0,0.0,87,0.00,,,0.02,WeatherCatV1.00B22,2013-07-18 14:00:00,
2013-07-18 10:05:00,75.6,71.4,30.01,NE,46,1.0,2.0,87,0.00,,,0.02,WeatherCatV1.00B22,2013-07-18 14:05:00,
2013-07-18 10:10:00,75.9,70.7,30.01,NNE,27,5.0,5.0,84,0.00,,,0.02,WeatherCatV1.00B22,2013-07-18 14:10:00,
2013-07-18 10:15:00,76.1,70.5,30.00,NE,43,2.0,4.0,83,0.00,,,0.02,WeatherCatV1.00B22,2013-07-18 14:15:00,
2013-07-18 10:20:00,76.4,71.2,30.00,NE,45,1.0,4.0,84,0.00,,,0.02,WeatherCatV1.00B22,2013-07-18 14:20:00,
2013-07-18 10:25:00,76.6,71.4,30.00,NNE,32,1.0,4.0,84,0.00,,,0.02,WeatherCatV1.00B22,2013-07-18 14:25:00,
2013-07-18 10:30:00,76.8,71.2,30.00,NE,46,1.0,3.0,83,0.00,,,0.02,WeatherCatV1.00B22,2013-07-18 14:30:00,
2013-07-18 10:35:00,77.1,71.9,30.00,NE,37,1.0,3.0,84,0.00,,,0.02,WeatherCatV1.00B22,2013-07-18 14:35:00,
2013-07-18 10:40:00,77.4,71.8,30.00,NNE,32,1.0,3.0,83,0.00,,,0.02,WeatherCatV1.00B22,2013-07-18 14:40:00,
2013-07-18 10:45:00,77.6,71.7,30.00,NNE,29,3.0,4.0,82,0.00,,,0.02,WeatherCatV1.00B22,2013-07-18 14:45:00,
2013-07-18 10:50:00,77.9,72.3,30.00,NE,42,1.0,4.0,83,0.00,,,0.02,WeatherCatV1.00B22,2013-07-18 14:50:00,
2013-07-18 10:55:00,78.1,72.5,30.00,NE,47,3.0,3.0,83,0.00,,,0.02,WeatherCatV1.00B22,2013-07-18 14:55:00,
2013-07-18 11:00:00,78.3,72.3,30.00,NE,47,3.0,5.0,82,0.00,,,0.02,WeatherCatV1.00B22,2013-07-18 15:00:00,
2013-07-18 11:05:00,78.5,72.9,30.00,NNE,33,2.0,4.0,83,0.00,,,0.02,WeatherCatV1.00B22,2013-07-18 15:05:00,
2013-07-18 11:10:00,78.7,72.4,30.00,NE,34,2.0,4.0,81,0.00,,,0.02,WeatherCatV1.00B22,2013-07-18 15:10:00,
2013-07-18 11:15:00,78.9,72.2,30.00,NE,37,2.0,3.0,80,0.00,,,0.02,WeatherCatV1.00B22,2013-07-18 15:15:00,
2013-07-18 11:20:00,79.1,72.4,30.00,NE,42,2.0,3.0,80,0.00,,,0.02,WeatherCatV1.00B22,2013-07-18 15:20:00,
2013-07-18 11:25:00,79.3,72.9,30.00,NE,41,2.0,2.0,81,0.00,,,0.02,WeatherCatV1.00B22,2013-07-18 15:25:00,
2013-07-18 11:30:00,79.6,73.2,30.00,NE,43,2.0,2.0,81,0.00,,,0.02,WeatherCatV1.00B22,2013-07-18 15:30:00,
2013-07-18 11:35:00,79.9,73.5,30.00,ENE,58,0.0,2.0,81,0.00,,,0.02,WeatherCatV1.00B22,2013-07-18 15:35:00,
2013-07-18 11:40:00,80.3,73.9,30.00,ENE,58,0.0,0.0,81,0.00,,,0.02,WeatherCatV1.00B22,2013-07-18 15:40:00,
2013-07-18 11:45:00,80.5,73.4,30.00,ENE,77,1.0,1.0,79,0.00,,,0.02,WeatherCatV1.00B22,2013-07-18 15:45:00,
2013-07-18 11:50:00,80.7,72.8,30.00,ENE,78,0.0,1.0,77,0.00,,,0.02,WeatherCatV1.00B22,2013-07-18 15:50:00,
2013-07-18 11:55:00,80.8,72.1,30.00,ENE,78,0.0,1.0,75,0.00,,,0.02,WeatherCatV1.00B22,2013-07-18 15:55:00,
2013-07-18 12:00:00,81.1,72.8,30.00,ENE,78,0.0,0.0,76,0.00,,,0.02,WeatherCatV1.00B22,2013-07-18 16:00:00,
2013-07-18 12:05:00,81.5,74.0,30.00,ENE,78,0.0,0.0,78,0.00,,,0.02,WeatherCatV1.00B22,2013-07-18 16:05:00,
2013-07-18 12:10:00,81.8,73.1,30.00,ENE,78,0.0,0.0,75,0.00,,,0.02,WeatherCatV1.00B22,2013-07-18 16:10:00,
2013-07-18 12:15:00,82.1,71.3,30.00,ENE,78,0.0,1.0,70,0.00,,,0.02,WeatherCatV1.00B22,2013-07-18 16:15:00,
2013-07-18 12:20:00,82.6,73.8,30.00,NE,42,1.0,2.0,75,0.00,,,0.02,WeatherCatV1.00B22,2013-07-18 16:20:00,
2013-07-18 12:25:00,82.9,73.7,30.00,NE,42,0.0,0.0,74,0.00,,,0.02,WeatherCatV1.00B22,2013-07-18 16:25:00,
2013-07-18 12:30:00,83.2,74.8,30.00,NE,42,1.0,1.0,76,0.00,,,0.02,WeatherCatV1.00B22,2013-07-18 16:30:00,
2013-07-18 12:35:00,83.2,72.4,30.00,NE,51,0.0,0.0,70,0.00,,,0.02,WeatherCatV1.00B22,2013-07-18 16:35:00,
2013-07-18 12:40:00,83.5,73.9,30.00,NE,51,0.0,1.0,73,0.00,,,0.02,WeatherCatV1.00B22,2013-07-18 16:40:00,
2013-07-18 12:45:00,83.4,72.1,30.00,NE,51,1.0,1.0,69,0.00,,,0.02,WeatherCatV1.00B22,2013-07-18 16:45:00,
2013-07-18 12:50:00,83.3,73.3,30.00,NE,53,0.0,1.0,72,0.00,,,0.02,WeatherCatV1.00B22,2013-07-18 16:50:00,
2013-07-18 12:55:00,83.5,73.9,29.99,NE,53,0.0,1.0,73,0.00,,,0.02,WeatherCatV1.00B22,2013-07-18 16:55:00,
2013-07-18 13:00:00,83.6,74.8,29.99,NE,53,1.0,1.0,75,0.00,,,0.02,WeatherCatV1.00B22,2013-07-18 17:00:00,
2013-07-18 13:05:00,83.6,74.0,29.99,NE,42,3.0,4.0,73,0.00,,,0.02,WeatherCatV1.00B22,2013-07-18 17:05:00,
2013-07-18 13:10:00,83.5,73.1,29.99,NNE,30,0.0,1.0,71,0.00,,,0.02,WeatherCatV1.00B22,2013-07-18 17:10:00,
2013-07-18 13:15:00,83.6,74.4,29.99,NNE,32,0.0,2.0,74,0.00,,,0.02,WeatherCatV1.00B22,2013-07-18 17:15:00,
2013-07-18 13:20:00,83.7,74.5,29.99,NNE,32,0.0,0.0,74,0.00,,,0.02,WeatherCatV1.00B22,2013-07-18 17:20:00,
2013-07-18 13:25:00,83.9,74.3,29.98,NNE,32,1.0,1.0,73,0.00,,,0.02,WeatherCatV1.00B22,2013-07-18 17:25:00,
2013-07-18 13:30:00,84.0,74.0,29.98,NNE,32,1.0,3.0,72,0.00,,,0.02,WeatherCatV1.00B22,2013-07-18 17:30:00,
2013-07-18 13:35:00,83.9,74.3,29.98,NNE,32,0.0,2.0,73,0.00,,,0.02,WeatherCatV1.00B22,2013-07-18 17:35:00,
2013-07-18 13:40:00,84.1,75.7,29.98,NNE,32,0.0,1.0,76,0.00,,,0.02,WeatherCatV1.00B22,2013-07-18 17:40:00,
2013-07-18 13:45:00,84.5,73.6,29.98,NNE,32,0.0,0.0,70,0.00,,,0.02,WeatherCatV1.00B22,2013-07-18 17:45:00,
2013-07-18 13:50:00,85.0,74.9,29.98,NNE,32,0.0,0.0,72,0.00,,,0.02,WeatherCatV1.00B22,2013-07-18 17:50:00,
2013-07-18 13:55:00,85.2,75.1,29.98,NE,38,1.0,3.0,72,0.00,,,0.02,WeatherCatV1.00B22,2013-07-18 17:55:00,
2013-07-18 14:00:00,85.0,74.1,29.97,NE,38,0.0,1.0,70,0.00,,,0.02,WeatherCatV1.00B22,2013-07-18 18:00:00,
2013-07-18 14:05:00,85.1,76.3,29.97,NE,38,0.0,1.0,75,0.00,,,0.02,WeatherCatV1.00B22,2013-07-18 18:05:00,
2013-07-18 14:10:00,85.2,75.9,29.97,NE,38,0.0,1.0,74,0.00,,,0.02,WeatherCatV1.00B22,2013-07-18 18:10:00,
2013-07-18 14:15:00,85.2,75.9,29.97,North,5,1.0,2.0,74,0.00,,,0.02,WeatherCatV1.00B22,2013-07-18 18:15:00,
2013-07-18 14:20:00,85.1,74.6,29.97,North,5,0.0,1.0,71,0.00,,,0.02,WeatherCatV1.00B22,2013-07-18 18:20:00,
2013-07-18 14:25:00,85.0,73.7,29.97,ENE,78,0.0,0.0,69,0.00,,,0.02,WeatherCatV1.00B22,2013-07-18 18:25:00,
2013-07-18 14:30:00,85.2,75.9,29.96,ENE,78,0.0,1.0,74,0.00,,,0.02,WeatherCatV1.00B22,2013-07-18 18:30:00,
2013-07-18 14:35:00,85.4,75.3,29.96,ENE,78,0.0,1.0,72,0.00,,,0.02,WeatherCatV1.00B22,2013-07-18 18:35:00,
2013-07-18 14:40:00,85.6,75.5,29.96,East,83,0.0,1.0,72,0.00,,,0.02,WeatherCatV1.00B22,2013-07-18 18:40:00,
2013-07-18 14:45:00,85.5,75.0,29.95,East,82,1.0,1.0,71,0.00,,,0.02,WeatherCatV1.00B22,2013-07-18 18:45:00,
2013-07-18 14:50:00,85.3,73.9,29.95,East,82,0.0,2.0,69,0.00,,,0.02,WeatherCatV1.00B22,2013-07-18 18:50:00,
2013-07-18 14:55:00,85.2,73.9,29.95,East,82,0.0,0.0,69,0.00,,,0.02,WeatherCatV1.00B22,2013-07-18 18:55:00,
2013-07-18 15:00:00,85.3,74.4,29.95,ENE,72,0.0,1.0,70,0.00,,,0.02,WeatherCatV1.00B22,2013-07-18 19:00:00,
2013-07-18 15:05:00,85.4,74.5,29.95,ENE,74,0.0,0.0,70,0.00,,,0.02,WeatherCatV1.00B22,2013-07-18 19:05:00,
2013-07-18 15:10:00,85.4,76.1,29.94,ENE,75,0.0,0.0,74,0.00,,,0.02,WeatherCatV1.00B22,2013-07-18 19:10:00,
2013-07-18 15:15:00,85.4,74.9,29.94,NE,49,1.0,1.0,71,0.00,,,0.02,WeatherCatV1.00B22,2013-07-18 19:15:00,
2013-07-18 15:20:00,85.3,73.9,29.94,NE,46,0.0,1.0,69,0.00,,,0.02,WeatherCatV1.00B22,2013-07-18 19:20:00,
2013-07-18 15:25:00,85.0,74.1,29.94,NE,46,0.0,0.0,70,0.00,,,0.02,WeatherCatV1.00B22,2013-07-18 19:25:00,
2013-07-18 15:30:00,84.5,74.5,29.93,NE,46,0.0,0.0,72,0.00,,,0.02,WeatherCatV1.00B22,2013-07-18 19:30:00,
2013-07-18 15:35:00,84.3,75.1,29.93,NE,46,0.0,0.0,74,0.00,,,0.02,WeatherCatV1.00B22,2013-07-18 19:35:00,
2013-07-18 15:40:00,84.4,76.0,29.93,NE,46,0.0,1.0,76,0.00,,,0.02,WeatherCatV1.00B22,2013-07-18 19:40:00,
2013-07-18 15:45:00,84.6,74.1,29.93,NE,46,0.0,0.0,71,0.00,,,0.02,WeatherCatV1.00B22,2013-07-18 19:45:00,
2013-07-18 15:50:00,84.7,74.2,29.93,ENE,67,0.0,1.0,71,0.00,,,0.02,WeatherCatV1.00B22,2013-07-18 19:50:00,
2013-07-18 15:55:00,84.8,73.9,29.92,ENE,64,2.0,2.0,70,0.00,,,0.02,WeatherCatV1.00B22,2013-07-18 19:55:00,
2013-07-18 16:00:00,84.9,74.0,29.92,NE,40,3.0,3.0,70,0.00,,,0.02,WeatherCatV1.00B22,2013-07-18 20:00:00,
2013-07-18 16:05:00,84.7,73.4,29.92,NE,46,1.0,2.0,69,0.00,,,0.02,WeatherCatV1.00B22,2013-07-18 20:05:00,
2013-07-18 16:10:00,84.8,73.9,29.92,NE,46,0.0,1.0,70,0.00,,,0.02,WeatherCatV1.00B22,2013-07-18 20:10:00,
2013-07-18 16:15:00,85.0,73.7,29.92,ENE,64,1.0,1.0,69,0.00,,,0.02,WeatherCatV1.00B22,2013-07-18 20:15:00,
2013-07-18 16:20:00,85.2,73.4,29.92,ENE,73,1.0,1.0,68,0.00,,,0.02,WeatherCatV1.00B22,2013-07-18 20:20:00,
2013-07-18 16:25:00,85.3,74.8,29.91,ENE,74,0.0,1.0,71,0.00,,,0.02,WeatherCatV1.00B22,2013-07-18 20:25:00,
2013-07-18 16:30:00,85.3,72.6,29.91,ENE,74,0.0,0.0,66,0.00,,,0.02,WeatherCatV1.00B22,2013-07-18 20:30:00,
2013-07-18 16:35:00,85.5,73.3,29.91,ENE,74,0.0,0.0,67,0.00,,,0.02,WeatherCatV1.00B22,2013-07-18 20:35:00,
2013-07-18 16:40:00,85.4,73.6,29.91,ENE,74,0.0,0.0,68,0.00,,,0.02,WeatherCatV1.00B22,2013-07-18 20:40:00,
2013-07-18 16:45:00,85.3,73.9,29.91,ENE,71,0.0,0.0,69,0.00,,,0.02,WeatherCatV1.00B22,2013-07-18 20:45:00,
2013-07-18 16:50:00,85.2,73.0,29.90,ENE,71,0.0,0.0,67,0.00,,,0.02,WeatherCatV1.00B22,2013-07-18 20:50:00,
2013-07-18 16:55:00,85.0,72.8,29.90,ENE,71,0.0,0.0,67,0.00,,,0.02,WeatherCatV1.00B22,2013-07-18 20:55:00,
2013-07-18 17:00:00,84.8,71.7,29.90,ENE,71,0.0,0.0,65,0.00,,,0.02,WeatherCatV1.00B22,2013-07-18 21:00:00,
2013-07-18 17:05:00,84.7,72.5,29.90,ENE,66,0.0,1.0,67,0.00,,,0.02,WeatherCatV1.00B22,2013-07-18 21:05:00,
2013-07-18 17:10:00,84.6,72.0,29.89,ENE,66,0.0,0.0,66,0.00,,,0.02,WeatherCatV1.00B22,2013-07-18 21:10:00,
2013-07-18 17:15:00,84.7,72.5,29.89,ENE,66,0.0,0.0,67,0.00,,,0.02,WeatherCatV1.00B22,2013-07-18 21:15:00,
2013-07-18 17:20:00,84.7,73.4,29.89,ENE,66,0.0,0.0,69,0.00,,,0.02,WeatherCatV1.00B22,2013-07-18 21:20:00,
2013-07-18 17:25:00,84.7,72.9,29.89,ENE,66,0.0,0.0,68,0.00,,,0.02,WeatherCatV1.00B22,2013-07-18 21:25:00,
2013-07-18 17:30:00,84.6,72.0,29.89,ENE,66,1.0,1.0,66,0.00,,,0.02,WeatherCatV1.00B22,2013-07-18 21:30:00,
2013-07-18 17:35:00,84.6,73.7,29.89,NE,47,2.0,3.0,70,0.00,,,0.02,WeatherCatV1.00B22,2013-07-18 21:35:00,
2013-07-18 17:40:00,84.6,73.3,29.89,ENE,58,1.0,2.0,69,0.00,,,0.02,WeatherCatV1.00B22,2013-07-18 21:40:00,
2013-07-18 17:45:00,84.5,73.2,29.89,NE,43,2.0,4.0,69,0.00,,,0.02,WeatherCatV1.00B22,2013-07-18 21:45:00,
2013-07-18 17:50:00,84.5,73.2,29.89,NE,53,0.0,1.0,69,0.00,,,0.02,WeatherCatV1.00B22,2013-07-18 21:50:00,
2013-07-18 17:55:00,84.3,73.4,29.89,NE,53,0.0,0.0,70,0.00,,,0.02,WeatherCatV1.00B22,2013-07-18 21:55:00,
2013-07-18 18:00:00,84.2,73.3,29.89,NE,51,1.0,1.0,70,0.00,,,0.02,WeatherCatV1.00B22,2013-07-18 22:00:00,
2013-07-18 18:05:00,84.1,73.7,29.88,East,86,0.0,1.0,71,0.00,,,0.02,WeatherCatV1.00B22,2013-07-18 22:05:00,
2013-07-18 18:10:00,84.0,73.6,29.88,NE,55,2.0,2.0,71,0.00,,,0.02,WeatherCatV1.00B22,2013-07-18 22:10:00,
2013-07-18 18:15:00,83.9,73.0,29.88,ENE,60,1.0,2.0,70,0.00,,,0.02,WeatherCatV1.00B22,2013-07-18 22:15:00,
2013-07-18 18:20:00,83.8,73.4,29.88,ENE,66,0.0,4.0,71,0.00,,,0.02,WeatherCatV1.00B22,2013-07-18 22:20:00,
2013-07-18 18:25:00,83.8,72.9,29.88,ENE,66,0.0,0.0,70,0.00,,,0.02,WeatherCatV1.00B22,2013-07-18 22:25:00,
2013-07-18 18:30:00,83.7,73.7,29.88,ENE,66,0.0,1.0,72,0.00,,,0.02,WeatherCatV1.00B22,2013-07-18 22:30:00,
2013-07-18 18:35:00,83.6,74.0,29.88,ENE,66,0.0,1.0,73,0.00,,,0.02,WeatherCatV1.00B22,2013-07-18 22:35:00,
2013-07-18 18:40:00,83.6,74.8,29.88,ENE,66,0.0,1.0,75,0.00,,,0.02,WeatherCatV1.00B22,2013-07-18 22:40:00,
2013-07-18 18:45:00,83.5,74.3,29.88,ENE,66,0.0,1.0,74,0.00,,,0.02,WeatherCatV1.00B22,2013-07-18 22:45:00,
2013-07-18 18:50:00,83.4,74.6,29.89,ENE,66,1.0,1.0,75,0.00,,,0.02,WeatherCatV1.00B22,2013-07-18 22:50:00,
2013-07-18 18:55:00,83.3,74.1,29.89,ENE,66,0.0,1.0,74,0.00,,,0.02,WeatherCatV1.00B22,2013-07-18 22:55:00,
2013-07-18 19:00:00,83.2,73.6,29.89,ENE,66,0.0,2.0,73,0.00,,,0.02,WeatherCatV1.00B22,2013-07-18 23:00:00,
2013-07-18 19:05:00,83.2,73.6,29.89,ENE,66,0.0,0.0,73,0.00,,,0.02,WeatherCatV1.00B22,2013-07-18 23:05:00,
2013-07-18 19:10:00,83.2,73.2,29.89,ENE,66,0.0,0.0,72,0.00,,,0.02,WeatherCatV1.00B22,2013-07-18 23:10:00,
2013-07-18 19:15:00,83.2,74.4,29.90,ENE,66,0.0,0.0,75,0.00,,,0.02,WeatherCatV1.00B22,2013-07-18 23:15:00,
2013-07-18 19:20:00,83.2,74.4,29.89,ENE,66,0.0,0.0,75,0.00,,,0.02,WeatherCatV1.00B22,2013-07-18 23:20:00,
2013-07-18 19:25:00,83.1,74.3,29.89,ENE,66,0.0,0.0,75,0.00,,,0.02,WeatherCatV1.00B22,2013-07-18 23:25:00,
2013-07-18 19:30:00,83.0,74.6,29.90,ENE,69,0.0,1.0,76,0.00,,,0.02,WeatherCatV1.00B22,2013-07-18 23:30:00,
2013-07-18 19:35:00,82.9,74.5,29.90,ENE,69,0.0,1.0,76,0.00,,,0.02,WeatherCatV1.00B22,2013-07-18 23:35:00,
2013-07-18 19:40:00,82.8,74.4,29.90,East,87,0.0,1.0,76,0.00,,,0.02,WeatherCatV1.00B22,2013-07-18 23:40:00,
2013-07-18 19:45:00,82.7,73.9,29.90,East,87,0.0,1.0,75,0.00,,,0.02,WeatherCatV1.00B22,2013-07-18 23:45:00,
2013-07-18 19:50:00,82.6,73.8,29.90,East,87,0.0,0.0,75,0.00,,,0.02,WeatherCatV1.00B22,2013-07-18 23:50:00,
2013-07-18 19:55:00,82.5,73.8,29.91,East,87,0.0,1.0,75,0.00,,,0.02,WeatherCatV1.00B22,2013-07-18 23:55:00,
2013-07-18 20:00:00,82.4,73.7,29.91,East,87,0.0,1.0,75,0.00,,,0.02,WeatherCatV1.00B22,2013-07-19 00:00:00,
2013-07-18 20:05:00,82.3,74.3,29.91,East,87,0.0,0.0,77,0.00,,,0.02,WeatherCatV1.00B22,2013-07-19 00:05:00,
2013-07-18 20:10:00,82.2,73.9,29.91,East,87,0.0,1.0,76,0.00,,,0.02,WeatherCatV1.00B22,2013-07-19 00:10:00,
2013-07-18 20:16:00,82.1,74.2,29.91,East,87,0.0,1.0,77,0.00,,,0.02,WeatherCatV1.00B22,2013-07-19 00:16:00,
2013-07-18 20:21:00,82.0,73.7,29.91,East,87,0.0,0.0,76,0.00,,,0.02,WeatherCatV1.00B22,2013-07-19 00:21:00,
2013-07-18 20:26:00,82.0,74.4,29.91,East,87,0.0,0.0,78,0.00,,,0.02,WeatherCatV1.00B22,2013-07-19 00:26:00,
2013-07-18 20:31:00,81.9,74.7,29.91,East,87,0.0,0.0,79,0.00,,,0.02,WeatherCatV1.00B22,2013-07-19 00:31:00,
2013-07-18 20:36:00,81.7,74.5,29.91,East,87,0.0,0.0,79,0.00,,,0.02,WeatherCatV1.00B22,2013-07-19 00:36:00,
2013-07-18 20:41:00,81.5,74.7,29.91,East,87,0.0,0.0,80,0.00,,,0.02,WeatherCatV1.00B22,2013-07-19 00:41:00,
2013-07-18 20:46:00,81.1,74.7,29.91,East,87,0.0,0.0,81,0.00,,,0.02,WeatherCatV1.00B22,2013-07-19 00:46:00,
2013-07-18 20:51:00,80.8,74.8,29.91,East,87,0.0,0.0,82,0.00,,,0.02,WeatherCatV1.00B22,2013-07-19 00:51:00,
2013-07-18 20:56:00,80.3,74.3,29.91,East,87,0.0,0.0,82,0.00,,,0.02,WeatherCatV1.00B22,2013-07-19 00:56:00,
2013-07-18 21:01:00,80.1,74.5,29.91,East,87,0.0,0.0,83,0.00,,,0.02,WeatherCatV1.00B22,2013-07-19 01:01:00,
2013-07-18 21:06:00,79.8,74.2,29.91,East,87,0.0,1.0,83,0.00,,,0.02,WeatherCatV1.00B22,2013-07-19 01:06:00,
2013-07-18 21:11:00,79.6,74.3,29.91,East,87,0.0,1.0,84,0.00,,,0.02,WeatherCatV1.00B22,2013-07-19 01:11:00,
2013-07-18 21:16:00,79.4,74.1,29.91,East,87,0.0,0.0,84,0.00,,,0.02,WeatherCatV1.00B22,2013-07-19 01:16:00,
2013-07-18 21:21:00,79.3,74.0,29.91,East,87,0.0,0.0,84,0.00,,,0.02,WeatherCatV1.00B22,2013-07-19 01:21:00,
2013-07-18 21:26:00,79.2,73.9,29.91,East,87,0.0,0.0,84,0.00,,,0.02,WeatherCatV1.00B22,2013-07-19 01:26:00,
2013-07-18 21:31:00,79.1,74.2,29.91,East,87,0.0,0.0,85,0.00,,,0.02,WeatherCatV1.00B22,2013-07-19 01:31:00,
2013-07-18 21:36:00,79.0,74.1,29.91,East,87,0.0,0.0,85,0.00,,,0.02,WeatherCatV1.00B22,2013-07-19 01:36:00,
2013-07-18 21:41:00,78.8,74.2,29.91,East,87,0.0,0.0,86,0.00,,,0.02,WeatherCatV1.00B22,2013-07-19 01:41:00,
2013-07-18 21:46:00,78.7,74.5,29.92,East,87,0.0,0.0,87,0.00,,,0.02,WeatherCatV1.00B22,2013-07-19 01:46:00,
2013-07-18 21:51:00,78.6,74.4,29.91,East,87,0.0,0.0,87,0.00,,,0.02,WeatherCatV1.00B22,2013-07-19 01:51:00,
2013-07-18 21:56:00,78.5,74.3,29.91,East,87,0.0,0.0,87,0.00,,,0.02,WeatherCatV1.00B22,2013-07-19 01:56:00,
2013-07-18 22:01:00,78.3,74.1,29.92,East,87,0.0,0.0,87,0.00,,,0.02,WeatherCatV1.00B22,2013-07-19 02:01:00,
2013-07-18 22:06:00,78.2,74.0,29.92,East,87,0.0,0.0,87,0.00,,,0.02,WeatherCatV1.00B22,2013-07-19 02:06:00,
2013-07-18 22:11:00,78.0,73.8,29.92,East,87,0.0,0.0,87,0.00,,,0.02,WeatherCatV1.00B22,2013-07-19 02:11:00,
2013-07-18 22:16:00,77.9,74.0,29.93,East,87,0.0,0.0,88,0.00,,,0.02,WeatherCatV1.00B22,2013-07-19 02:16:00,
2013-07-18 22:21:00,77.8,73.9,29.93,East,87,0.0,0.0,88,0.00,,,0.02,WeatherCatV1.00B22,2013-07-19 02:21:00,
2013-07-18 22:26:00,77.6,74.1,29.93,East,87,0.0,0.0,89,0.00,,,0.02,WeatherCatV1.00B22,2013-07-19 02:26:00,
2013-07-18 22:31:00,77.5,74.0,29.93,East,87,0.0,0.0,89,0.00,,,0.02,WeatherCatV1.00B22,2013-07-19 02:31:00,
2013-07-18 22:36:00,77.4,74.2,29.93,East,87,0.0,0.0,90,0.00,,,0.02,WeatherCatV1.00B22,2013-07-19 02:36:00,
2013-07-18 22:41:00,77.3,74.1,29.93,East,87,0.0,0.0,90,0.00,,,0.02,WeatherCatV1.00B22,2013-07-19 02:41:00,
2013-07-18 22:46:00,77.2,74.0,29.93,East,87,0.0,0.0,90,0.00,,,0.02,WeatherCatV1.00B22,2013-07-19 02:46:00,
2013-07-18 22:51:00,77.1,74.3,29.94,East,87,0.0,0.0,91,0.00,,,0.02,WeatherCatV1.00B22,2013-07-19 02:51:00,
2013-07-18 22:56:00,77.1,74.3,29.94,East,87,0.0,0.0,91,0.00,,,0.02,WeatherCatV1.00B22,2013-07-19 02:56:00,
2013-07-18 23:01:00,76.9,74.1,29.94,East,87,0.0,0.0,91,0.00,,,0.02,WeatherCatV1.00B22,2013-07-19 03:01:00,
2013-07-18 23:06:00,76.9,74.1,29.94,East,87,0.0,0.0,91,0.00,,,0.02,WeatherCatV1.00B22,2013-07-19 03:06:00,
2013-07-18 23:11:00,76.8,74.3,29.94,East,87,0.0,1.0,92,0.00,,,0.02,WeatherCatV1.00B22,2013-07-19 03:11:00,
2013-07-18 23:16:00,76.7,74.2,29.94,East,87,0.0,0.0,92,0.00,,,0.02,WeatherCatV1.00B22,2013-07-19 03:16:00,
2013-07-18 23:21:00,76.7,74.2,29.94,East,87,0.0,0.0,92,0.00,,,0.02,WeatherCatV1.00B22,2013-07-19 03:21:00,
2013-07-18 23:26:00,76.6,74.1,29.94,East,87,0.0,0.0,92,0.00,,,0.02,WeatherCatV1.00B22,2013-07-19 03:26:00,
2013-07-18 23:31:00,76.5,74.0,29.94,East,87,0.0,0.0,92,0.00,,,0.02,WeatherCatV1.00B22,2013-07-19 03:31:00,
2013-07-18 23:36:00,76.4,73.9,29.94,East,87,0.0,0.0,92,0.00,,,0.02,WeatherCatV1.00B22,2013-07-19 03:36:00,
2013-07-18 23:41:00,76.4,74.2,29.94,East,87,0.0,0.0,93,0.00,,,0.02,WeatherCatV1.00B22,2013-07-19 03:41:00,
2013-07-18 23:46:00,76.3,74.1,29.94,East,87,0.0,0.0,93,0.00,,,0.02,WeatherCatV1.00B22,2013-07-19 03:46:00,
2013-07-18 23:51:00,76.2,74.0,29.94,East,87,0.0,0.0,93,0.00,,,0.02,WeatherCatV1.00B22,2013-07-19 03:51:00,
2013-07-18 23:56:00,76.1,73.9,29.94,East,87,0.0,0.0,93,0.00,,,0.02,WeatherCatV1.00B22,2013-07-19 03:56:00,